CW1172 Weather Reports


time (UTC)temp
F
wind
direction
speed
knots
gust
knots
rain 1hr
in
rain 24hr
in
rain mn
in
humidity
%
barometer
mb
20260502201527 55 341 0.0 0.0 0.00 0.00 0.00 66 1009.9
20260502200028 55 219 0.0 0.0 0.00 0.00 0.00 65 1010.0
20260502194532 56 161 0.0 0.0 0.00 0.00 0.00 62 1010.2
20260502193027 57 360 0.0 0.0 0.00 0.00 0.00 62 1010.1
20260502191529 58 360 0.0 0.0 0.00 0.00 0.00 61 1009.9
20260502190030 58 244 0.0 0.0 0.00 0.00 0.00 60 1009.7
20260502184526 59 272 0.0 0.0 0.00 0.00 0.00 60 1009.7
20260502183026 60 360 0.0 0.0 0.00 0.00 0.00 60 1009.6
20260502181535 60 245 0.0 0.0 0.00 0.00 0.00 58 1009.6
20260502163037 67 245 0.0 0.0 0.00 0.00 0.00 51 1010.1
20260502161524 68 360 0.0 0.0 0.00 0.00 0.00 50 1010.1
20260502151528 69 215 0.0 0.0 0.00 0.00 0.00 54 1010.4
20260502123003 69 240 0.0 0.0 0.00 0.00 0.00 56 1012.4
20260502121504 68 218 0.0 0.0 0.00 0.00 0.00 56 1012.4
20260502114608 68 360 0.0 0.0 0.00 0.00 0.00 56 1012.8
20260502113104 68 360 0.0 0.0 0.00 0.00 0.00 56 1012.9
20260502111600 67 188 0.0 0.0 0.00 0.00 0.00 56 1013.0
20260502110055 67 231 0.0 0.0 0.00 0.00 0.00 55 1013.1
20260502104552 67 190 0.0 0.0 0.00 0.00 0.00 56 1013.1
20260502103102 66 202 0.0 0.0 0.00 0.00 0.00 57 1013.3
20260502101559 66 162 0.0 0.0 0.00 0.00 0.00 56 1013.4
20260502100113 66 360 0.0 0.0 0.00 0.00 0.00 58 1013.4
20260502070034 61 169 0.0 0.0 0.00 0.00 0.00 63 1014.5
20260502064533 61 360 0.0 0.0 0.00 0.00 0.00 64 1014.7
20260502063028 60 215 0.0 0.0 0.00 0.00 0.00 65 1014.7
20260502061532 58 159 0.0 0.0 0.00 0.00 0.00 67 1014.8
20260502060021 56 150 0.0 0.0 0.00 0.00 0.00 72 1015.0
20260502054514 53 157 0.0 0.0 0.00 0.00 0.00 76 1015.1
20260502053009 51 156 0.0 0.0 0.00 0.00 0.00 80 1015.3
20260502051520 50 187 0.0 0.0 0.00 0.00 0.00 83 1015.5
20260502050005 49 132 0.0 0.0 0.00 0.00 0.00 85 1015.6
20260502044504 48 157 0.0 0.0 0.00 0.00 0.00 87 1015.8
20260502043003 46 159 0.0 0.0 0.00 0.00 0.00 88 1016.0
20260502041507 45 155 0.0 0.0 0.00 0.00 0.00 89 1016.2
20260502040002 43 148 0.0 0.0 0.00 0.00 0.00 89 1016.5
20260502034558 43 161 0.0 0.0 0.00 0.00 0.00 89 1016.7
20260502033058 42 152 0.0 0.0 0.00 0.00 0.00 88 1016.8
20260502031558 42 141 0.0 0.0 0.00 0.00 0.00 87 1017.0
20260502030057 42 129 0.0 0.0 0.00 0.00 0.00 87 1017.3
20260502024600 43 143 0.0 0.0 0.00 0.00 0.00 86 1017.6
20260502023049 43 145 0.0 0.0 0.00 0.00 0.00 86 1017.8
20260502021550 44 150 0.0 0.0 0.00 0.00 0.00 84 1017.9
20260502020046 44 179 0.0 0.0 0.00 0.00 0.00 84 1018.0
20260502014541 45 144 0.0 0.0 0.00 0.00 0.00 83 1018.4
20260502013040 46 169 0.0 0.0 0.00 0.00 0.00 83 1018.5
20260502011539 47 222 0.0 0.0 0.00 0.00 0.00 83 1018.7
20260502010036 47 173 0.0 0.0 0.00 0.00 0.00 82 1018.8
20260502004535 46 176 0.0 0.0 0.00 0.00 0.00 82 1019.0
20260502003032 46 152 0.0 0.0 0.00 0.00 0.00 80 1019.1
20260502001532 46 168 0.0 0.0 0.00 0.00 0.00 80 1019.1
20260502000030 47 160 0.0 0.0 0.00 0.00 0.00 79 1019.5
20260501234528 48 165 0.0 0.0 0.00 0.00 0.00 78 1019.7
20260501233026 47 171 0.0 0.0 0.00 0.00 0.00 78 1019.8
20260501231527 47 360 0.0 0.0 0.00 0.00 0.00 77 1020.0
20260501230030 47 161 0.0 0.0 0.00 0.00 0.00 75 1020.3
20260501224522 48 161 0.0 0.0 0.00 0.00 0.00 74 1020.4
20260501223020 48 161 0.0 0.0 0.00 0.00 0.00 73 1020.5
20260501221519 49 151 0.0 0.0 0.00 0.00 0.00 72 1020.5
20260501220017 48 152 0.0 0.0 0.00 0.00 0.00 72 1020.6
20260501214515 48 178 0.0 0.0 0.00 0.00 0.00 71 1020.7
20260501213013 50 171 0.0 0.0 0.00 0.00 0.00 69 1020.9
20260501211514 51 171 0.0 0.0 0.00 0.00 0.00 68 1020.9
20260501210012 52 164 0.0 0.0 0.00 0.00 0.00 67 1021.0
20260501204511 52 164 0.0 0.0 0.00 0.00 0.00 67 1021.1
20260501203010 52 165 0.0 0.0 0.00 0.00 0.00 67 1021.3